Terug naar catalogus

NOAA 17 DEB

ActiefPO
NORAD 48755·DEBRIS·🇺🇸 United States

Gelanceerd Jun 24, 2002 vanaf Vandenberg Space Force Base

Loading…

Volgende Passages (komende 24 uur)

TLE

VersSource: Space-Track

Epoch: Sep 12, 2026, 02:23 UTC

1 48755U 02032CQ  26255.09956545  .00032538  00000-0  20976-2 0  9996
2 48755  98.6910 312.4900 0007311 355.2316   4.8838 15.08221104289992

Volg NOAA 17 DEB in realtime met AllMySat

Download on the App Store